Track STARLINK-2564 now! 10-day predictions STARLINK-2564 is classified as:
1 48284U 21036J 22220.90206698 .00002356 00000-0 17700-3 0 9990 2 48284 53.0548 196.9920 0001584 66.7302 293.3854 15.06407680 71044